CZ-7A R/B

基本信息
目录编号:
69236
目录名称:
CZ-7A R/B
国际标识:
2026-116B
轨道中心:
EARTH
物体状态:
已陨落(2026-09-02)
发射日期:
2026-05-26 UTC
国别:
中国 (CN)
轨道信息
数据来源: 国际轨道数据
星历时间: 2026-09-01T05:02:57+0800
半长轴: 8742.084km
偏心率: 0.259535
轨道倾角: 19.601°
近地点辐角: 293.951°
升交点赤经: 86.234°
平近点角: 41.137°
近地点: 95.07km
远地点: 4632.824km
周期: 135.576分钟
每日圈数: 10.621365
详细信息
发射场:
WSC
轨道高度:
LEO
数据来源:
AOE Integration Group
参考系:
TEME
时间系统:
UTC
历元类型:
SGP4
2D轨道图
3D轨道图
轨道高度分析图
轨道倾角分析图
轨道综合分析图
查看轨道综合分析图